Flag for Canada Weather past 2 weeks in Conception Bay South, Newfoundland and Labrador, Canada

63 °F

Scattered clouds.

Feels Like: 63 °F
Forecast: 45 / 61 °F
Wind: 6 mph from Southwest

Location: St. John's

Current Time: Oct 6, 2015 at 2:49:43 PM

Latest Report: Oct 6, 2015 at 2:30 PM

Visibility: 15 mi

Pressure: 29.95 "Hg

Humidity: 52%

Dew point: 45 °F

Location of Conception Bay SouthLocation

Historic Weather in Conception Bay South — Graph


Conception Bay South temperature yesterday

Maximum temperature yesterday: 57 °F (at 12:30 PM)
Minimum temperature yesterday: 36 °F (at 1:30 AM)
Average temperature yesterday: 48 °F

Past Weeks' High & Low Weather Summary

High73 °F (Sep 30, 1:30 PM)100% (Sep 21, 10:30 PM)30.33 "Hg (Sep 21, 10:30 PM)
Low36 °F (Sep 26, 9:30 PM)40% (Sep 23, 4:30 PM)29.87 "Hg (Sep 28, 5:30 PM)
Average51 °F79%30.16 "Hg
* Reported Sep 21 1:30 PM — Oct 6 1:30 PM, Conception Bay South, Weather by CustomWeather, © 2015

Note: Actual official high and low records may vary slightly from our data, if they occured in-between our weather recording intervals... More about our weather records


Conception Bay South weather history for previous 24 hours

Time TempWeatherWind HumidityBarometerVisibility
1:30 PM
Tue, Oct 6
61 °FPartly sunny.10 mph55%29.96 "Hg15 mi
12:30 PM59 °FPartly sunny.16 mph59%29.98 "Hg15 mi
11:30 AM57 °FPartly sunny.13 mph67%30.00 "Hg15 mi
10:30 AM55 °FPartly sunny.21 mph77%30.01 "Hg15 mi
9:30 AM52 °FPartly sunny.14 mph88%30.03 "Hg15 mi
8:30 AM48 °FPartly sunny.12 mph94%30.04 "Hg15 mi
7:30 AM46 °FPartly cloudy.8 mph100%30.04 "Hg15 mi
6:30 AM48 °FPassing clouds.10 mph94%30.04 "Hg15 mi
5:30 AM48 °FPassing clouds.13 mph94%30.05 "Hg15 mi
4:30 AM48 °FPartly cloudy.16 mph94%30.05 "Hg15 mi
3:30 AM48 °FPartly cloudy.12 mph94%30.07 "Hg15 mi
2:30 AM48 °FPassing clouds.14 mph94%30.08 "Hg15 mi
1:30 AM48 °FPassing clouds.13 mph94%30.10 "Hg15 mi
12:30 AM48 °FPassing clouds.14 mph94%30.11 "Hg15 mi
11:30 PM
Mon, Oct 5
48 °FPassing clouds.13 mph94%30.13 "Hg15 mi
10:30 PM48 °FPassing clouds.13 mph94%30.15 "Hg15 mi
9:30 PM48 °FPassing clouds.13 mph94%30.15 "Hg15 mi
8:30 PM50 °FPassing clouds.13 mph88%30.16 "Hg15 mi
6:30 PM52 °FPartly sunny.9 mph82%30.18 "Hg15 mi
5:30 PM55 °FPartly sunny.9 mph72%30.18 "Hg15 mi
4:30 PM55 °FPartly sunny.8 mph72%30.18 "Hg15 mi
3:30 PM57 °FMore clouds than sun.10 mph67%30.19 "Hg15 mi
2:30 PM57 °FMore clouds than sun.10 mph67%30.21 "Hg15 mi
Weather by CustomWeather, © 2015

See weather overviewHow to use our weather pages